Weather in Verdun

France     49°09′40″N   5°23′27″E
temp.,
°C
wind,
m/s
gust,
m/s
humid.,
%
clouds,
%
prec.,
mm/h
press.,
hPa
HPBL,
m
14 april, wed
wed1423:000ne22775 0.0 103217
02:00−1ne127923 0.0 103211
05:00−1nne22785 0.0 103121
08:00+1nne257297 0.0 1031150
11:00+6ne445148 0.1 10301644
14:00+8ne4446100 0.4 10291971
17:00+9nne353990 0.1 10272180
20:00+5nne3667100 0.3 1028185
15 april, thu
thu1523:00+1nne368169 0.0 1029110
02:00−1nne39835 0.0 1029172
05:00−1nne28895 0.0 1029141
08:000nne398225 0.0 1029255
11:00+6ne456038 0.1 10281027
14:00+9ne454991 1.2 10272099
17:00+9ene464710 0.1 10251886
20:00+5ne387425 0.6 1026214
16 april, fri
fri1623:00+2ne3128223 0.1 1027302
02:00+1ne4118096 0.1 1027298
05:000ne3108264 0.0 1027263
08:00+1ne4117961 0.0 1027465
11:00+5ne6861100 0.0 10271394
14:00+6ene6860100 0.1 10261465
17:00+7ne5961100 0.0 10241537
20:00+6ene367392 0.1 1024215
17 april, sat
sat1723:00+3ne118562 0.0 102510
02:00+4nne248238 0.0 1025122
05:00+1nne24915 0.0 102572
08:00+2nne28815 0.0 1025221
11:00+8ne566114 0.0 10241156
14:00+11ne565297 0.0 10231735
17:00+10ne4760100 0.0 10221317
20:00+8ne3776100 0.0 1023320
18 april, sun
sun1823:00+6ne3980100 0.0 1024442
02:00+5ne368796 0.0 1024204
05:00+5ne2688100 0.0 1024234
08:00+6ne2687100 0.0 1025333
11:00+9ne3572100 0.0 1025809
14:00+12ne3557100 0.2 10231721
17:00+12ne3459100 0.2 10231337
20:00+10nne2277100 0.4 102324